Regional Weather Roundup
Issued by NWS Green Bay, WI

Home | Current Version | Previous Version | Graphics & Text | Print | Product List | Glossary Off
Versions: 1 2 3 4 5 6 7 8 9 10 11 12 13 14 15 16 17 18 19 20 21 22 23 24 25 26 27 28 29 30 31 32 33 34 35 36 37 38 39 40 41 42 43 44 45 46 47 48 49 50

000
ASUS43 KGRB 251559
RWRGRB

NORTH-CENTRAL AND NORTHEAST WISCONSIN REGIONAL WEATHER ROUNDUP
NATIONAL WEATHER SERVICE GREEN BAY WI
1100 AM CDT FRI JUL 25 2014

WIZ005-009-010>012-018-019-251700-
NORTH CENTRAL WISCONSIN

CITY           SKY/WX    TMP DP  RH WIND       PRES   REMARKS
IRONWOOD       NOT AVBL
MANITOWISH WTR NOT AVBL
ARBOR VITAE    NOT AVBL
EAGLE RIVER    NOT AVBL
LAND O LAKES   NOT AVBL
RHINELANDER    CLOUDY    64  59  83 SW10G20   29.90R
PHILLIPS       NOT AVBL
ANTIGO         NOT AVBL
TOMAHAWK       NOT AVBL
MERRILL        NOT AVBL
$$

WIZ013-073-251700-
NORTHEAST WISCONSIN

CITY           SKY/WX    TMP DP  RH WIND       PRES   REMARKS
IRON MOUNTAIN  PTSUNNY   73  57  57 SW9       29.89S
MARINETTE      CLOUDY    72  57  60 SW10G16   29.90S
$$

WIZ017-030-035>037-045-251700-
CENTRAL WISCONSIN

CITY           SKY/WX    TMP DP  RH WIND       PRES   REMARKS
MEDFORD        NOT AVBL
WAUSAU         CLOUDY    66  59  78 S13       29.89F
MOSINEE        LGT RAIN  63  59  88 S9        29.93R
MARSHFIELD     LGT RAIN  63  59  87 S10       29.86F
WISC RAPIDS    CLOUDY    65  58  78 SW9       29.93F
STEVENS POINT  NOT AVBL
WAUPACA        NOT AVBL
SHAWANO        NOT AVBL
CLINTONVILLE   NOT AVBL
$$

WIZ038-039-048-051-251700-
FOX VALLEY

CITY           SKY/WX    TMP DP  RH WIND       PRES   REMARKS
NWS GREEN BAY  CLOUDY    68  58  70 S6        29.93S
APPLETON       NOT AVBL
OSHKOSH        LGT RAIN  66  58  75 SW12G21   29.94R
FOND DU LAC    LGT RAIN  67  56  67 SW10      29.95R
$$

WIZ022-050-052-251700-
EAST CENTRAL WISCONSIN

CITY           SKY/WX    TMP DP  RH WIND       PRES   REMARKS
STURGEON BAY   CLOUDY    72  55  56 S8        29.93S
MANITOWOC      NOT AVBL
SHEBOYGAN      PTSUNNY   72  57  59 S12       29.94F
$$

LMZ563-521-522-541>543-251700-
LAKESHORE

STATION/POSITION TIME  TEMP    WIND        PRES    VSBY  WAVE
                       AIR SEA DIR/SP/G                  HT/PER
                 (UTC) (F)     (DEG/KT/KT) (MB)    (MI)  (FT/S)
SHEBOYGAN LKSHOR 1500   63     170/ 13/ 14 1014.8F
KEWAUNEE LKSHORE 1500   71     210/  8/ 13 1014.3F
TWO RIVERS CG    1500   58                   N/A       6   1
NORTHPORT PIER   1500   72     220/  7/ 14 1012.9F
N MID LAKE BUOY  1500   58 55  200/ 10/ 12 1013.3F         2/ 4
STURGEON BAY CG  1500   56 48  110/  4     1014.1      6   1
CHAMBERS ISLAND  1500   67     180/  6/ 10 1013.5F
MENOMINEE LKSHOR 1500   71     220/  9/ 11 1013.2F
$$


USA.gov is the U.S. government's official web portal to all federal, state and local government web resources and services.